Tracking 19490 objects as of 23-Jan-2019
HD Live streaming from Space Station
objects crossing your sky now

COSMOS 2009

Track COSMOS 2009 now!
10-day predictions
COSMOS 2009 is classified as:


NORAD ID: 19903
Int'l Code: 1989-025B
Perigee: 1,415.2 km
Apogee: 1,478.8 km
Inclination: 74.0 °
Period: 114.7 minutes
Semi major axis: 7818 km
RCS: 0.6989 m2 (medium)
Launch date: March 24, 1989
Source: Commonwealth of Independent States (former USSR) (CIS)
Launch site: PLESETSK MISSILE AND SPACE COMPLEX (PKMTR)
aabbcc
Your satellite tracking list
Your tracking list is empty




NASA's NSSDC Master Catalog

Two Line Element Set (TLE):
1 19903U 89025B   19022.77035771 -.00000018 +00000-0 -13778-4 0  9998
2 19903 074.0104 139.2017 0040674 133.8146 337.3698 12.55901314367679
Source of the keplerian elements: AFSPC